Wind_Speed
6 5 4 4 3 4 4 4 4 3 1 0 1 2 3 4 5 4 4 4 4 4 4 4 3 2 2 3 3 3 3 3 2 2 2 2 2 3 3 3 4 4 4 4 4 5 4 4 4
8 7 7 7 6 7 10 8 7 5 4 3 1 1 1 2 4 4 4 4 4 4 5 5 5 4 5 5 5 5 5 5 5 5 5 5 5 6 6 6 6 6 6 6 6 6 6 6 5
11 11 11 10 10 11 12 11 9 8 6 5 4 2 2 3 4 4 5 5 5 5 6 7 7 7 7 7 7 8 8 8 8 8 8 8 8 8 8 8 8 8 8 8 8 8 8 8 8
14 15 15 14 15 14 14 13 12 10 8 7 6 4 4 5 5 6 6 7 6 7 8 8 9 10 10 11 11 11 11 11 10 11 10 11 10 10 10 10 10 9 9 9 9 10 10 10 10
16 17 17 18 19 18 16 15 14 12 11 9 8 7 7 7 7 7 8 9 9 9 10 11 12 12 13 13 13 13 12 12 12 12 12 12 12 12 12 11 11 11 11 10 10 11 11 11 11
18 19 19 19 23 21 19 17 16 15 14 13 11 10 9 9 9 9 10 11 12 12 13 14 14 15 15 15 15 15 15 15 15 15 15 14 14 14 13 13 12 12 12 11 11 11 12 12 13
21 21 23 24 25 24 23 20 18 17 17 16 14 13 11 11 11 12 13 14 15 16 16 17 18 18 19 19 19 18 18 18 18 18 17 17 16 16 16 15 14 14 13 13 13 14 14 14 14
23 24 25 26 27 27 25 23 21 20 19 18 17 16 15 14 14 15 16 17 18 19 19 20 21 21 21 21 22 22 21 21 22 21 20 21 20 19 19 18 17 16 16 15 15 15 15 15 15
26 25 26 28 29 29 27 25 23 22 21 21 21 19 18 17 17 18 19 20 21 21 21 22 23 24 24 24 24 24 24 24 25 24 24 24 24 23 22 21 19 18 18 17 17 16 16 16 17
26 26 28 30 30 30 29 27 25 24 23 24 24 23 21 20 21 22 23 23 22 22 23 23 24 24 25 25 25 25 26 26 26 26 26 25 24 23 23 23 21 20 20 19 19 19 19 18 18
24 25 28 29 29 29 29 28 27 26 26 25 26 24 24 23 24 24 25 25 24 23 23 23 23 24 24 24 24 24 24 24 24 24 23 23 23 22 22 23 23 22 22 21 21 21 21 21 20
18 21 24 26 27 27 27 27 27 27 27 27 27 26 25 25 26 26 26 25 24 23 23 23 22 22 21 22 21 20 21 21 22 22 21 21 21 21 22 22 22 23 23 22 22 22 22 22 22
11 15 18 21 23 24 24 25 25 26 26 27 27 28 28 27 27 27 26 25 23 23 23 22 21 20 20 19 19 19 19 20 19 19 20 21 21 21 22 22 22 23 23 24 24 24 24 24 24
8 9 12 15 18 19 20 21 23 24 25 26 27 28 28 28 27 26 25 24 23 22 22 21 20 18 18 19 19 19 19 19 19 19 20 21 21 22 23 23 24 24 25 26 26 27 27 26 26
7 7 7 10 12 14 16 17 20 22 23 24 26 26 27 26 26 25 23 22 21 20 19 18 17 17 17 17 17 17 18 18 19 20 21 21 22 23 24 24 25 25 26 27 27 28 28 28 27
8 7 7 7 8 10 12 15 17 19 21 23 24 24 24 24 24 22 21 20 18 17 15 14 14 14 15 15 16 17 17 18 19 20 20 21 22 23 24 24 25 25 26 27 27 28 28 28 28
10 7 7 8 7 9 11 14 16 19 21 22 23 23 23 23 22 21 19 17 16 14 12 12 12 13 13 14 15 16 17 18 18 19 20 20 21 22 22 23 24 25 25 26 26 27 27 28 28
7 7 9 9 9 10 12 15 17 18 18 20 21 22 22 21 21 19 16 14 12 11 10 11 12 12 14 15 16 17 17 18 18 19 20 20 21 21 22 22 23 24 24 24 25 25 26 27 28
7 8 9 10 10 11 12 14 15 15 15 16 17 17 17 18 16 13 11 10 9 9 10 11 13 13 15 16 17 18 19 19 19 20 20 20 21 21 22 22 22 23 23 23 24 25 25 26 27
8 8 9 10 10 11 11 12 12 12 12 12 11 10 9 7 7 7 7 7 8 9 10 11 13 14 15 16 18 19 20 20 20 20 20 21 21 21 21 22 22 22 23 23 23 24 24 25 25
8 8 9 10 9 9 10 10 10 9 9 6 4 3 2 2 2 3 4 5 7 9 10 12 13 15 16 18 19 19 19 20 20 20 20 20 20 20 20 20 21 21 22 23 23 24 24 25 26
7 8 8 8 8 9 9 10 10 10 10 8 6 4 4 3 3 4 4 6 8 10 12 13 15 16 17 18 18 18 18 18 18 18 18 18 18 18 18 18 19 20 21 22 23 24 25 26 27
7 7 7 8 8 8 9 8 9 10 10 9 8 8 7 7 6 6 7 8 10 12 14 15 16 17 17 17 17 17 17 17 17 17 17 17 16 17 18 18 19 20 21 22 23 24 26 27 28
8 8 8 8 8 9 9 8 9 9 9 9 9 9 8 9 8 8 9 11 12 14 15 15 15 15 16 16 17 17 17 17 18 18 18 18 17 17 18 19 20 21 22 23 24 26 27 28 30
8 7 7 8 8 10 10 9 10 10 9 9 10 10 10 10 10 11 12 13 14 14 14 15 15 16 16 16 16 17 17 18 18 18 19 19 19 20 20 21 21 22 23 24 26 27 29 30 31
8 6 5 4 6 9 10 10 11 10 10 10 10 10 10 10 10 11 12 13 14 14 15 15 15 16 16 16 17 17 18 19 19 19 20 21 22 23 23 23 24 25 26 27 28 29 30 31 32
9 7 6 6 6 6 8 9 10 10 10 10 10 10 10 10 11 11 12 13 14 14 15 15 16 16 17 17 18 19 20 20 21 21 22 23 24 25 26 27 27 28 29 29 30 31 31 33 34
8 8 6 4 4 5 9 10 11 11 11 10 10 10 10 11 11 12 13 13 14 14 15 16 16 17 17 18 19 20 21 22 23 24 25 25 26 27 28 29 30 31 32 32 33 33 33 34 35
10 9 6 5 6 4 7 10 12 11 11 10 10 10 11 11 12 13 13 14 15 15 16 16 17 18 19 20 21 22 23 24 25 25 27 28 29 30 31 33 33 34 35 35 35 35 35 35 35
11 10 9 7 9 9 8 11 14 12 11 10 10 11 12 12 13 14 14 15 16 16 17 18 18 19 20 22 23 24 25 26 27 28 29 30 32 33 34 36 36 37 38 38 37 37 36 35 35
Wind_Direction
341 319 293 272 261 270 262 268 277 275 287 213 132 77 71 57 45 36 19 19 21 13 3 348 324 297 275 271 275 280 284 286 277 266 256 255 260 263 272 288 297 303 308 312 317 320 326 334 344
319 302 281 271 258 246 261 266 267 269 276 274 273 309 30 18 21 17 5 7 6 353 338 325 308 289 274 265 261 262 267 270 269 267 264 263 263 263 267 276 281 284 288 291 295 298 300 303 303
302 291 279 272 262 250 258 265 265 265 268 268 278 288 310 319 331 339 343 350 347 336 326 317 303 292 283 277 273 273 271 271 269 267 266 267 268 268 270 274 276 276 278 281 285 290 289 289 288
291 285 277 267 259 261 260 262 261 257 261 267 276 283 294 304 310 317 324 330 326 317 311 305 297 289 285 282 282 282 280 276 274 272 271 272 273 274 275 277 277 278 279 280 282 284 285 282 280
285 280 275 268 262 260 258 257 256 254 259 263 270 277 289 298 305 311 313 315 311 308 303 296 289 285 285 285 285 282 281 279 277 277 277 277 277 277 276 276 278 280 280 281 282 282 282 280 275
278 275 268 257 258 258 255 252 251 254 257 262 267 274 283 293 302 308 311 309 307 301 297 292 287 284 283 283 283 282 280 279 278 279 278 278 279 279 278 277 277 277 278 279 282 283 281 279 276
271 267 263 258 257 254 252 250 247 250 253 260 266 271 285 296 304 307 308 306 304 298 293 290 285 284 283 282 282 281 280 279 278 278 278 277 275 275 275 273 272 273 275 277 281 282 280 277 275
267 262 261 256 250 249 251 250 248 249 252 260 264 272 285 297 305 308 309 307 303 297 289 285 282 279 279 279 280 278 278 277 277 278 278 277 275 272 270 270 269 270 272 276 279 281 280 278 275
264 257 254 250 246 247 250 249 249 250 253 258 266 273 284 293 303 307 309 308 302 296 289 286 284 280 278 279 280 278 278 277 274 274 275 276 274 271 270 267 266 269 272 274 278 280 280 278 276
261 253 250 251 249 247 248 248 248 249 253 259 265 272 280 289 297 304 308 306 302 296 290 287 285 280 278 279 280 278 276 277 274 272 274 276 275 274 274 268 266 270 272 274 276 278 280 278 275
261 253 252 251 248 246 245 246 248 248 252 259 265 271 279 287 295 301 305 305 301 296 290 288 285 280 277 277 279 279 281 281 277 276 279 282 279 280 281 277 270 270 273 274 276 277 278 276 275
266 257 253 251 249 246 244 245 246 250 255 261 266 273 279 286 292 298 300 301 299 295 290 287 286 283 282 280 282 285 287 288 287 287 286 287 286 284 285 283 276 273 273 276 277 279 278 278 277
280 265 258 254 251 248 247 246 248 252 256 261 267 273 279 285 291 295 296 295 294 292 290 286 287 284 284 285 287 289 290 293 295 296 293 290 288 287 286 286 282 278 276 277 278 278 278 277 275
309 286 271 263 258 255 252 251 252 255 259 264 268 274 279 284 288 290 291 291 291 291 290 288 287 287 287 289 291 291 292 294 295 294 292 290 287 284 283 283 282 280 277 277 276 276 276 275 273
340 321 299 279 268 263 261 259 260 261 264 267 271 275 279 282 284 286 287 287 288 291 291 289 289 293 293 292 294 296 295 295 293 291 289 288 286 284 282 282 280 279 277 276 275 275 274 273 271
354 349 324 297 281 273 268 266 265 263 265 269 272 274 275 277 279 280 283 285 287 291 295 294 294 295 296 297 297 298 296 295 294 292 290 288 286 285 283 281 280 278 276 275 274 273 273 272 270
0 349 313 304 297 288 277 272 272 270 269 270 270 272 272 273 273 275 279 283 288 294 297 298 299 301 302 302 301 299 298 296 295 292 290 288 286 284 283 282 281 279 277 275 274 273 272 270 269
324 316 313 310 307 297 288 284 280 277 275 272 270 270 269 271 271 272 275 282 289 297 301 306 306 306 306 305 303 302 300 298 297 294 292 291 289 287 285 283 281 280 279 278 276 274 272 271 270
344 333 319 313 313 307 300 298 291 284 281 277 273 271 263 267 267 266 272 282 293 304 309 312 312 310 310 311 310 310 308 306 304 302 299 296 294 291 288 285 283 282 281 280 278 276 274 272 271
349 343 331 324 319 313 313 312 308 307 294 286 282 275 275 265 262 269 279 294 307 313 316 317 317 318 319 320 320 320 318 315 313 310 308 304 300 296 292 289 287 285 284 282 281 279 277 274 272
345 342 332 330 332 337 338 343 342 344 343 331 319 305 304 294 291 304 313 316 324 327 326 326 326 324 325 326 326 325 323 320 318 316 312 309 304 301 298 295 292 289 287 286 284 283 281 278 275
331 329 330 333 335 335 344 349 358 1 12 22 35 43 45 42 19 0 339 336 336 333 330 329 328 327 327 327 326 325 324 323 322 321 318 315 310 307 304 301 298 296 294 291 289 286 284 282 278
318 322 323 325 330 330 335 341 347 358 11 24 35 40 39 29 18 7 354 345 338 335 332 330 328 327 326 324 324 325 325 325 325 325 323 321 318 315 311 308 305 302 299 297 294 291 288 285 281
317 318 319 322 327 319 314 321 323 337 351 2 10 11 10 7 1 353 346 342 338 335 332 329 327 326 324 324 326 327 328 328 328 327 325 322 320 317 315 311 308 306 303 300 297 294 291 287 284
315 333 350 342 330 303 299 301 305 320 335 344 348 349 349 349 346 341 339 339 335 331 329 327 325 324 324 327 329 330 331 330 329 328 327 326 323 320 317 314 311 309 306 303 300 296 293 289 285
309 320 315 301 302 301 294 294 304 315 324 331 336 337 337 335 333 331 331 330 328 325 323 322 323 324 325 326 327 328 329 329 329 328 327 325 324 322 319 317 315 312 309 306 303 299 295 291 287
297 302 306 314 313 320 300 297 303 311 318 323 326 326 325 325 323 322 321 320 320 319 318 317 319 321 323 324 325 326 326 325 325 326 325 324 323 322 320 318 315 313 311 308 304 301 297 292 287
285 293 309 322 305 313 312 308 302 307 314 317 318 316 315 314 311 311 311 310 311 313 314 315 318 321 324 325 326 326 326 325 324 324 323 322 321 320 319 318 315 313 311 309 305 301 298 293 288
282 284 294 294 281 286 299 297 293 301 304 306 306 306 306 304 301 301 302 304 306 310 313 317 320 323 326 328 328 328 327 325 324 324 323 322 320 320 319 317 315 312 310 308 306 302 298 294 289
273 278 288 290 287 289 294 293 288 292 292 296 298 297 298 297 296 297 299 301 305 309 314 318 322 325 328 329 329 329 328 326 325 324 323 322 320 319 318 316 314 312 310 308 306 303 299 295 290
Height
5931 5931 5930 5931 5932 5932 5931 5930 5929 5928 5927 5926 5925 5924 5923 5923 5924 5926 5923 5921 5920 5920 5919 5920 5920 5920 5920 5919 5918 5917 5916 5916 5915 5915 5915 5914 5914 5914 5913 5913 5912 5912 5912 5911 5910 5910 5910 5909 5909
5930 5930 5930 5930 5931 5932 5930 5929 5928 5928 5927 5925 5924 5923 5922 5922 5922 5921 5920 5920 5919 5919 5919 5919 5919 5919 5919 5919 5918 5917 5916 5915 5915 5914 5914 5913 5913 5912 5912 5912 5912 5911 5911 5910 5910 5909 5909 5909 5908
5929 5928 5928 5928 5929 5929 5928 5927 5927 5926 5925 5924 5923 5922 5921 5921 5920 5920 5919 5919 5918 5918 5917 5917 5917 5917 5917 5917 5917 5916 5915 5915 5914 5913 5912 5912 5911 5911 5910 5910 5910 5910 5909 5909 5909 5908 5908 5908 5907
5927 5926 5926 5926 5926 5925 5925 5925 5924 5924 5923 5922 5922 5921 5920 5920 5919 5919 5918 5917 5917 5917 5916 5916 5916 5915 5915 5914 5914 5914 5913 5913 5912 5911 5910 5910 5909 5909 5909 5908 5908 5908 5908 5907 5907 5907 5906 5906 5906
5923 5923 5923 5922 5921 5921 5922 5922 5922 5922 5921 5921 5920 5919 5918 5918 5918 5917 5916 5916 5915 5915 5914 5914 5913 5913 5912 5912 5911 5911 5910 5910 5909 5909 5908 5907 5907 5907 5906 5906 5906 5906 5905 5905 5905 5905 5904 5904 5904
5921 5920 5920 5919 5916 5917 5918 5919 5919 5919 5919 5919 5918 5918 5917 5917 5916 5916 5915 5914 5914 5913 5912 5911 5911 5910 5910 5909 5908 5907 5907 5906 5906 5906 5905 5904 5904 5904 5904 5903 5903 5903 5903 5903 5902 5902 5902 5902 5901
5917 5915 5914 5913 5911 5912 5914 5915 5916 5917 5916 5916 5916 5916 5915 5915 5915 5914 5913 5912 5912 5911 5910 5909 5908 5907 5906 5905 5905 5904 5904 5903 5903 5902 5902 5901 5901 5901 5900 5900 5900 5900 5900 5899 5899 5899 5899 5898 5898
5910 5911 5909 5907 5907 5907 5909 5911 5912 5913 5913 5914 5914 5913 5913 5914 5913 5912 5911 5910 5909 5908 5906 5905 5904 5903 5902 5901 5901 5900 5900 5899 5899 5898 5898 5897 5897 5896 5896 5896 5896 5896 5896 5896 5895 5895 5895 5895 5895
5902 5905 5903 5902 5902 5902 5904 5906 5908 5909 5910 5910 5910 5911 5911 5911 5910 5909 5908 5907 5906 5904 5903 5902 5900 5899 5898 5898 5896 5896 5895 5895 5894 5894 5893 5892 5892 5891 5890 5890 5891 5891 5891 5891 5891 5891 5891 5890 5890
5895 5897 5896 5896 5896 5898 5899 5902 5904 5906 5907 5907 5907 5907 5907 5907 5907 5906 5905 5903 5902 5900 5899 5898 5896 5895 5894 5893 5892 5891 5890 5889 5888 5888 5887 5887 5886 5885 5884 5884 5885 5886 5886 5886 5886 5886 5886 5885 5886
5888 5890 5889 5890 5891 5893 5895 5898 5900 5902 5903 5903 5904 5904 5904 5903 5903 5902 5901 5899 5897 5896 5894 5893 5892 5890 5889 5888 5887 5886 5885 5884 5883 5882 5882 5882 5881 5880 5879 5879 5879 5880 5880 5880 5880 5880 5880 5880 5880
5882 5883 5884 5885 5887 5889 5891 5893 5895 5897 5899 5899 5899 5899 5899 5900 5899 5898 5896 5895 5893 5892 5890 5889 5887 5886 5885 5883 5883 5882 5881 5879 5878 5877 5877 5877 5876 5875 5874 5874 5874 5874 5874 5874 5874 5875 5875 5875 5875
5879 5879 5880 5881 5883 5885 5887 5889 5891 5893 5894 5894 5895 5895 5895 5895 5894 5893 5891 5890 5888 5887 5886 5884 5883 5882 5881 5880 5879 5878 5877 5876 5874 5873 5873 5872 5871 5871 5869 5869 5868 5868 5869 5869 5869 5869 5869 5869 5868
5877 5877 5878 5879 5880 5882 5884 5886 5887 5888 5889 5890 5890 5890 5890 5889 5889 5887 5886 5885 5884 5883 5881 5880 5879 5878 5877 5876 5875 5874 5873 5872 5870 5869 5868 5867 5866 5865 5865 5864 5863 5863 5863 5863 5863 5863 5863 5863 5863
5876 5876 5877 5877 5878 5880 5882 5883 5883 5884 5884 5885 5885 5885 5884 5884 5883 5882 5881 5880 5879 5878 5877 5876 5875 5874 5874 5873 5871 5870 5869 5867 5866 5865 5863 5862 5861 5860 5859 5858 5858 5857 5857 5856 5856 5856 5856 5856 5857
5876 5876 5878 5877 5877 5877 5880 5880 5879 5879 5879 5879 5879 5879 5879 5878 5878 5877 5877 5876 5875 5875 5874 5873 5872 5871 5870 5869 5867 5866 5864 5863 5861 5860 5858 5857 5856 5854 5853 5852 5851 5851 5850 5850 5850 5850 5850 5850 5850
5877 5878 5878 5876 5875 5875 5876 5876 5875 5874 5874 5874 5873 5873 5873 5873 5873 5872 5872 5872 5872 5871 5871 5870 5869 5868 5867 5865 5864 5862 5860 5858 5857 5855 5853 5852 5850 5849 5847 5846 5845 5844 5844 5843 5843 5843 5842 5842 5842
5880 5878 5876 5875 5873 5873 5872 5871 5870 5869 5868 5868 5867 5867 5867 5867 5867 5868 5868 5869 5869 5869 5868 5867 5866 5865 5863 5862 5860 5858 5856 5854 5852 5850 5848 5846 5845 5843 5841 5840 5839 5838 5837 5836 5836 5835 5835 5835 5835
5877 5876 5875 5873 5871 5870 5869 5868 5866 5864 5863 5862 5862 5861 5861 5862 5863 5864 5865 5866 5866 5866 5865 5864 5863 5861 5860 5858 5855 5853 5851 5849 5847 5845 5843 5840 5839 5837 5835 5834 5833 5832 5831 5830 5829 5829 5828 5828 5828
5876 5875 5874 5872 5870 5869 5867 5865 5863 5861 5860 5859 5858 5857 5857 5859 5860 5861 5862 5863 5863 5862 5862 5860 5859 5857 5856 5853 5851 5848 5846 5843 5841 5839 5837 5834 5832 5831 5829 5827 5826 5825 5824 5823 5823 5822 5821 5821 5821
5877 5875 5874 5871 5869 5868 5867 5865 5862 5860 5858 5856 5855 5856 5856 5857 5858 5859 5860 5860 5860 5860 5859 5857 5856 5854 5852 5849 5846 5844 5841 5839 5836 5834 5832 5829 5827 5825 5823 5822 5820 5819 5818 5817 5816 5815 5814 5813 5813
5877 5875 5873 5871 5870 5869 5868 5866 5864 5861 5859 5857 5856 5856 5857 5857 5858 5858 5858 5858 5858 5857 5856 5854 5852 5850 5847 5845 5843 5840 5838 5835 5832 5829 5827 5825 5822 5820 5818 5817 5815 5813 5812 5810 5809 5808 5807 5806 5805
5876 5874 5873 5871 5870 5869 5868 5867 5866 5862 5861 5859 5858 5858 5857 5857 5857 5857 5857 5856 5855 5854 5853 5851 5849 5847 5845 5842 5840 5837 5834 5831 5829 5826 5823 5821 5819 5816 5814 5812 5810 5808 5806 5804 5803 5801 5800 5798 5797
5875 5874 5872 5871 5870 5870 5868 5868 5866 5863 5862 5860 5859 5858 5857 5857 5856 5856 5855 5854 5853 5852 5850 5849 5847 5845 5843 5840 5837 5834 5831 5828 5825 5822 5820 5817 5815 5812 5810 5807 5805 5802 5800 5798 5796 5794 5792 5790 5789
5874 5874 5875 5874 5873 5870 5867 5867 5866 5863 5862 5860 5859 5858 5857 5856 5855 5854 5853 5852 5851 5850 5849 5847 5845 5843 5840 5838 5835 5832 5828 5825 5822 5819 5816 5813 5810 5807 5805 5802 5799 5796 5794 5791 5789 5786 5784 5782 5780
5873 5873 5874 5874 5873 5870 5866 5865 5865 5862 5861 5860 5858 5857 5856 5855 5854 5853 5852 5851 5850 5849 5847 5845 5843 5841 5838 5835 5832 5829 5826 5822 5819 5815 5812 5808 5805 5802 5799 5796 5793 5790 5787 5784 5781 5778 5775 5773 5770
5872 5871 5871 5870 5869 5869 5867 5865 5863 5861 5860 5859 5858 5857 5856 5855 5853 5852 5851 5850 5849 5847 5846 5843 5841 5838 5835 5832 5829 5826 5822 5818 5815 5811 5807 5804 5800 5796 5793 5789 5786 5782 5779 5775 5772 5769 5766 5763 5760
5870 5869 5869 5869 5869 5870 5868 5865 5863 5860 5859 5858 5857 5855 5854 5853 5852 5851 5850 5849 5847 5845 5843 5841 5838 5835 5832 5828 5825 5821 5817 5814 5810 5806 5802 5798 5794 5790 5786 5782 5778 5774 5770 5766 5762 5759 5756 5752 5749
5868 5867 5867 5867 5866 5867 5868 5868 5861 5859 5858 5857 5855 5854 5853 5852 5851 5849 5848 5847 5845 5843 5840 5838 5835 5831 5828 5824 5820 5816 5812 5808 5804 5800 5796 5792 5787 5783 5779 5774 5769 5765 5761 5756 5752 5748 5744 5741 5737
5865 5864 5864 5865 5864 5863 5864 5867 5858 5857 5856 5855 5854 5853 5851 5850 5848 5847 5845 5844 5842 5840 5837 5834 5830 5826 5823 5819 5815 5811 5806 5802 5798 5794 5790 5785 5780 5775 5771 5766 5760 5755 5751 5746 5741 5737 5733 5729 5726